This is the latest recevied weather packets stored in our database for station/object KD8DNS. If no packets are shown the sender has not sent any weather packets the latest 10 day(s).
| Time | Temp. | Humidity | Pressure | Rain* | Wind** | Luminosity | Snow |
|---|---|---|---|---|---|---|---|
| 1788266116 | 22.78° C | 94% | 1022.1 hPa | 0 mm | - | 109 W/m² | - |
| 1788265815 | 22.22° C | 95% | 1022.2 hPa | 0 mm | - | 81 W/m² | - |
| 1788265514 | 22.22° C | 96% | 1022.2 hPa | 0 mm | - | 51 W/m² | - |
| 1788265213 | 22.22° C | 96% | 1022.3 hPa | 0 mm | - | 40 W/m² | - |
| 1788264908 | 22.22° C | 96% | 1022.4 hPa | 0 mm | - | 32 W/m² | - |
| 1788264604 | 21.67° C | 97% | 1022.2 hPa | 0 mm | - | 29 W/m² | - |
| 1788264303 | 21.67° C | 97% | 1022.2 hPa | 0 mm | - | 25 W/m² | - |
| 1788263999 | 21.67° C | 98% | 1022.2 hPa | 0 mm | - | 19 W/m² | - |
| 1788263694 | 21.67° C | 98% | 1022.1 hPa | 0 mm | - | 13 W/m² | - |
| 1788263391 | 21.67° C | 98% | 1021.9 hPa | 0 mm | - | 12 W/m² | - |
| 1788263087 | 21.67° C | 98% | 1021.9 hPa | 0 mm | - | 11 W/m² | - |
| 1788262784 | 21.11° C | 98% | 1022 hPa | 0 mm | - | 11 W/m² | - |
| 1788262484 | 21.11° C | 99% | 1021.7 hPa | 0 mm | - | 12 W/m² | - |
| 1788262180 | 21.11° C | 99% | 1021.8 hPa | 0 mm | - | 10 W/m² | - |
| 1788261875 | 21.11° C | 99% | 1021.9 hPa | 0 mm | - | 7 W/m² | - |
| 1788261570 | 21.11° C | 99% | 1021.6 hPa | 0 mm | - | 6 W/m² | - |
| 1788261268 | 21.11° C | 99% | 1021.6 hPa | 0 mm | - | 3 W/m² | - |
| 1788260966 | 21.11° C | 99% | 1021.4 hPa | 0 mm | - | 2 W/m² | - |
| 1788260663 | 21.11° C | 99% | 1021.5 hPa | 0 mm | - | 0 W/m² | - |
| 1788260358 | 21.11° C | 99% | 1021.2 hPa | 0 mm | - | 0 W/m² | - |
| 1788260049 | 21.11° C | 99% | 1021.2 hPa | 0 mm | - | 0 W/m² | - |
| 1788259745 | 21.11° C | 99% | 1021.3 hPa | 0 mm | - | 0 W/m² | - |
| 1788259439 | 21.11° C | 99% | 1021.2 hPa | 0 mm | - | 0 W/m² | - |
| 1788259135 | 21.11° C | 99% | 1021.2 hPa | 0 mm | - | 0 W/m² | - |
| 1788258835 | 21.11° C | 99% | 1021.2 hPa | 0 mm | - | 0 W/m² | - |
* Rain latest hour (hover to see other rain measurements)
** Current wind speed in m/s (hover to see current wind gust speed)